Regional Weather Roundup
Issued by NWS

Home | Current Version | Previous Version | Graphics & Text | Print | Product List | Glossary On
Versions: 1 2 3 4 5 6 7 8 9 10 11 12 13 14 15 16 17 18 19 20 21 22 23 24 25 26 27 28 29 30 31 32 33 34 35 36 37 38 39 40 41 42 43 44 45 46 47 48 49 50
000
ASUS43 KLSX 212357
RWRMO

WEATHER SUMMARY FOR MISSOURI
NATIONAL WEATHER SERVICE SPRINGFIELD MO
600 PM CST WED FEB 21 2018

NOTE: "FAIR" INDICATES FEW OR NO CLOUDS BELOW 12,000 FEET WITH NO
       SIGNIFICANT WEATHER AND/OR OBSTRUCTIONS TO VISIBILITY.
       CURRENT SKY AND/OR WEATHER CONDITIONS ARE NOT AVAILABLE FOR
       CHILLICOTHE AND FARMINGTON.

MOZ001>031-035>038-043-044-053-054-220100-
...NORTHERN AND WESTERN MISSOURI...

CITY           SKY/WX    TMP DP  RH WIND       PRES   REMARKS
KANSAS CTY INT MOCLDY    27  22  81 NE10      30.52S WCI  17
6HR MIN TEMP:  22; 6HR MAX TEMP:  27;

LEE`S SUMMIT   CLOUDY    26  23  88 NE14      30.50F WCI  14
6HR MIN TEMP:  22; 6HR MAX TEMP:  27;

ST JOSEPH      CLOUDY    28  22  78 NE10      30.56R WCI  19
6HR MIN TEMP:  22; 6HR MAX TEMP:  29;

CHILLICOTHE      N/A     28  21  75 NE6       30.57R WCI  22
6HR MIN TEMP:  23; 6HR MAX TEMP:  30;


$$
MOZ066>068-077>081-088>096-101>105-220100-
...SOUTHWEST MISSOURI...

CITY           SKY/WX    TMP DP  RH WIND       PRES   REMARKS
SPRINGFIELD    CLOUDY    28  26  92 NE10      30.41S WCI  19
6HR MIN TEMP:  27; 6HR MAX TEMP:  29;

JOPLIN         FRZ DRZL  28  27  96 NE8G17    30.43F WCI  20
6HR MIN TEMP:  26; 6HR MAX TEMP:  29; 6HR PCP: TRACE;

BRANSON        FRZ RAIN  28  28 100 N6        30.41F VSB 3/4 WCI  22

$$
MOZ032>034-039>042-045>050-055>058-069>072-220100-
...CENTRAL MISSOURI...

CITY           SKY/WX    TMP DP  RH WIND       PRES   REMARKS
COLUMBIA       NOT AVBL
JEFFERSON CITY CLOUDY    29  25  85 NE6       30.54F WCI  23
6HR MIN TEMP:  27; 6HR MAX TEMP:  30;

ROLLA          CLOUDY    26  26 100 NE12      30.49F FOG     WCI  16
6HR MIN TEMP:  26; 6HR MAX TEMP:  27;

SEDALIA        CLOUDY    31  26  82 E10       30.52F WCI  22
6HR MIN TEMP:  26; 6HR MAX TEMP:  31;

WARRENSBURG    MOCLDY    28  25  86 NE8       30.52S WCI  20

$$
MOZ051-052-059>065-220100-
...EAST CENTRAL MISSOURI...

CITY           SKY/WX    TMP DP  RH WIND       PRES   REMARKS
ST LOUIS INTL  FRZ DRZL  30  29  96 N9        30.55R FOG     WCI  22
6HR MIN TEMP:  29; 6HR MAX TEMP:  30; 6HR PCP:  0.01;


$$
MOZ072>076-082>087-097>100-106>115-220100-
...SOUTH CENTRAL AND SOUTHEAST MISSOURI...

CITY           SKY/WX    TMP DP  RH WIND       PRES   REMARKS
CAPE GIRARDEAU LGT RAIN  36  33  89 N9        30.42S FOG     WCI  29
6HR MIN TEMP:  34; 6HR MAX TEMP:  36; 6HR PCP:  0.34;

POPLAR BLUFF   LGT RAIN  35  33  92 N10       30.41R WCI  27
6HR MIN TEMP:  34; 6HR MAX TEMP:  37; 6HR PCP:  0.25;

WEST PLAINS    FRZ RAIN  30  29  96 N10G20    30.43R FOG     WCI  21
6HR MIN TEMP:  30; 6HR MAX TEMP:  32; 6HR PCP:  0.02;


$$



USA.gov is the U.S. government's official web portal to all federal, state and local government web resources and services.